Location: Guilderland
(42.7045°N, 73.9115°W)
Time: 18:04:10
(UTC+00:00)

CSL-04 Debris - Pass Details

Date: 24 January 2020
Orbit: 828 x 848 km, 99.0° (Epoch: 22 February)

Event Time Altitude Azimuth Distance (km) Brightness Sun altitude
Rises 23:25:15 0° 162° (SSE) 3,353 7.3 -16.0°
Reaches altitude 10° 23:27:35 10° 162° (SSE) 2,424 6.5 -16.4°
Maximum altitude 23:32:58 84° 74° (ENE) 839 4.1 -17.4°
Drops below altitude 10° 23:38:23 10° 347° (NNW) 2,448 6.6 -18.4°
Sets 23:40:45 0° 347° (NNW) 3,388 7.4 -18.8°
